{"data":{"norad_id":57532,"intl_designator":"2023-115M","name":"STARLINK-30251","alt_names":[],"object_type":"PAYLOAD","status":"ACTIVE","operator":null,"country":"US","launch_date":"2023-08-08","launch_site_code":"AFWTR","launch_vehicle":null,"mission":null,"orbit_class":"UNKNOWN","rcs_meters":null,"size_class":null,"mass_kg":null,"dimensions":null,"purposes":["comms"],"wikipedia_slug":null,"has_3d_model":false,"image_url":null,"decayed_at":null,"tle_current":{"epoch":"2026-09-20T22:19:27.672096Z","epoch_age_seconds":90479,"freshness":"FRESH","line1":"1 57532U 23115M   26263.93018139  .00000466  00000+0  26465-4 0  9999","line2":"2 57532  43.0039 338.7452 0001312 276.7943  83.2760 15.27576753172217","mean_motion":15.27576753,"eccentricity":0.0001312,"inclination_deg":43.0039,"raan_deg":338.7452,"arg_perigee_deg":276.7943,"mean_anomaly_deg":83.276,"bstar":2.6465e-5,"rev_number":17221,"period_min":94.266949085995,"perigee_km":482.15862985156,"apogee_km":483.9590076344,"semimajor_km":6861.195818743,"source":"CELESTRAK","updated_at":"2026-09-21T09:00:33.639089Z"}}}